Back to catalog

FENGYUN 1C DEB

LostPO
NORAD 35164·DEBRIS·🇨🇳 China

Launched May 10, 1999 from Taiyuan Satellite Launch Center

Loading…

Next Passes (next 24 hours)

TLE

StaleSource: Space-Track

Epoch: Sep 4, 2024, 08:07 UTC

1 35164U 99025DMU 24248.33836170  .00008180  00000-0  59242-2 0  9996
2 35164  98.5772  85.4320 0202150  46.6106 315.1691 13.87422368565640

Track FENGYUN 1C DEB in real time with AllMySat

Download on the App Store